Location: Tierra del Sol
(32.6128°N, 116.3319°W)
Time: 15:14:58
(UTC-07:00)

Amateur Radio Satellites - All Passes

Search period start: 28 July 2016 14:44
Search period end: 29 July 2016 14:44
Location: Tierra del Sol, 32.6128°N, 116.3319°W

Satellite Date Start Highest point End Downlink Frequencies (MHz)
Time Altitude Azimuth
GONETS M04 28 Jul 14:47:17 14:55:26 47° 89° (E) 15:03:37
ITUPSAT 1 28 Jul 14:53:20 14:58:00 52° 101° (E) 15:02:37 437.325
TISAT 1 28 Jul 15:03:11 15:05:53 17° 291° (WNW) 15:08:34 437.305
RS-15 28 Jul 15:07:35 15:19:17 45° 52° (NE) 15:30:43 29.354- 29.394
CUSAT 1 28 Jul 15:08:13 15:11:27 48° 263° (W) 15:15:34 437.405
AO-7 28 Jul 15:38:08 15:46:30 86° 72° (ENE) 15:54:55 29.400- 29.500
SWISSCUBE 28 Jul 15:45:58 15:50:14 34° 289° (WNW) 15:54:31 437.505
DANDE 28 Jul 15:46:00 15:48:41 52° 262° (W) 15:51:51 436.750
SO-50 28 Jul 15:46:33 15:48:18 12° 47° (NE) 15:50:02 436.795
KKS-1 28 Jul 15:48:34 15:51:59 21° 96° (E) 15:55:23 437.445
PHONESAT 2.4 28 Jul 15:57:12 16:00:16 85° 146° (SSE) 16:03:20 2401.200-2431.200
HORYU 2 28 Jul 16:06:26 16:09:38 20° 69° (ENE) 16:12:50 437.375
BEESAT 28 Jul 16:07:38 16:11:21 23° 291° (WNW) 16:15:03 436.000
ITAMSAT 1 28 Jul 16:11:59 16:15:21 17° 266° (W) 16:18:42 435.822/435.867
Cosmos 2499 28 Jul 16:17:58 16:26:42 62° 279° (W) 16:35:20 435.465 / 435.565
STARS 28 Jul 16:22:44 16:26:22 24° 97° (E) 16:30:00 437.465
ITUPSAT 1 28 Jul 16:33:07 16:35:20 13° 294° (WNW) 16:37:33 437.325
MOZHAYETS 4 28 Jul 16:33:29 16:38:04 82° 101° (E) 16:42:37
NOAA 15 28 Jul 16:40:46 16:41:03 10° 63° (ENE) 16:41:21 137.62
GONETS M04 28 Jul 16:44:59 16:52:22 31° 286° (WNW) 16:59:50
BEESAT 3 28 Jul 17:09:37 17:12:42 23° 111° (ESE) 17:15:48 437.485
NOAA 18 28 Jul 17:11:59 17:15:38 18° 65° (ENE) 17:19:19 137.9125
BRITE-PL 28 Jul 17:14:11 17:17:25 22° 71° (ENE) 17:20:39 437.365/2234.400
BEESAT 2 28 Jul 17:20:00 17:22:12 15° 109° (ESE) 17:24:26 435.950
RS-15 28 Jul 17:20:11 17:31:51 51° 252° (WSW) 17:43:16 29.354- 29.394
PCSat 28 Jul 17:23:03 17:23:14 10° 102° (ESE) 17:23:24 145.827
KKS-1 28 Jul 17:24:40 17:28:28 28° 289° (WNW) 17:32:16 437.445
SO-50 28 Jul 17:24:43 17:29:16 69° 244° (WSW) 17:33:40 436.795
PHONESAT 2.4 28 Jul 17:34:26 17:37:00 23° 348° (NNW) 17:39:33 2401.200-2431.200
AO-7 28 Jul 17:35:32 17:39:59 15° 267° (W) 17:44:29 29.400- 29.500
Cubesat XI-IV 28 Jul 17:37:43 17:42:23 31° 70° (ENE) 17:47:03 437.490
HORYU 2 28 Jul 17:41:59 17:45:56 31° 262° (W) 17:49:55 437.375
DOVE 4 28 Jul 17:54:28 17:55:49 11° 65° (ENE) 17:57:12 437.250
CUBESAT XI-V 28 Jul 17:57:12 18:01:50 76° 102° (ESE) 18:06:27 437.345
STARS 28 Jul 17:59:03 18:02:34 23° 290° (WNW) 18:06:05 437.465
CUTE-I 28 Jul 18:00:13 18:05:24 52° 73° (ENE) 18:10:37 437.470
GOMX 1 28 Jul 18:07:06 18:10:58 39° 73° (ENE) 18:14:57 467.674
NOAA 15 28 Jul 18:14:50 18:20:05 81° 256° (WSW) 18:25:21 137.62
LilacSat-2 28 Jul 18:27:35 18:31:27 76° 259° (W) 18:35:21 437.200
BEESAT 3 28 Jul 18:47:10 18:50:15 22° 305° (NW) 18:53:22 437.485
NOAA 18 28 Jul 18:50:30 18:55:50 50° 259° (W) 19:01:14 137.9125
BRITE-PL 28 Jul 18:52:43 18:55:51 20° 264° (W) 18:58:58 437.365/2234.400
CUTE 1.7 + AOD 2 28 Jul 18:55:57 18:57:24 12° 67° (ENE) 18:58:51 437.475
BEESAT 2 28 Jul 18:56:07 18:59:42 33° 303° (WNW) 19:03:20 435.950
PCSat 28 Jul 19:00:28 19:05:52 78° 295° (WNW) 19:11:19 145.827
YUBILEINY 28 Jul 19:03:22 19:04:58 11° 64° (ENE) 19:06:34 435.215
PHONESAT 2.4 28 Jul 19:11:49 19:14:06 19° 5° (N) 19:16:24 2401.200-2431.200
HO-68 28 Jul 19:13:23 19:19:51 38° 67° (ENE) 19:26:22 435.675
Cubesat XI-IV 28 Jul 19:17:53 19:22:21 27° 263° (W) 19:26:52 437.490
CINEMA 3 28 Jul 19:27:38 19:31:46 38° 73° (ENE) 19:36:06 145.822/145.860
DOVE 4 28 Jul 19:28:52 19:32:58 49° 261° (W) 19:37:17 437.250
O/OREOS (USA 219) 28 Jul 19:29:26 19:33:08 26° 102° (ESE) 19:36:49 437.305
SEEDS 28 Jul 19:30:02 19:33:12 21° 71° (ENE) 19:36:22 437.485
AIST 2 28 Jul 19:34:12 19:37:12 20° 110° (ESE) 19:40:13 435.215
COMPASS 1 28 Jul 19:38:55 19:41:44 18° 70° (ENE) 19:44:33 437.405
CUTE-I 28 Jul 19:42:35 19:45:40 15° 266° (W) 19:48:47 437.470
GOMX 1 28 Jul 19:47:38 19:49:17 12° 268° (W) 19:50:55 467.674
ISS 28 Jul 19:49:00 19:52:08 48° 132° (SE) 19:55:17 145.825
UWE-3 28 Jul 19:58:40 20:01:24 16° 68° (ENE) 20:04:09 435.000/436.395/437.385
AAUSAT CUBESAT 2 28 Jul 20:04:37 20:08:11 28° 72° (ENE) 20:11:44 437.432
STRAND 1 28 Jul 20:07:55 20:13:03 86° 284° (WNW) 20:18:08 437.568
CANX-2 28 Jul 20:15:28 20:19:41 60° 260° (W) 20:23:55 2200.000
Cosmos 2491 28 Jul 20:18:07 20:24:35 24° 83° (E) 20:31:02 435.465 / 435.565
CUBEBUG 2 28 Jul 20:22:39 20:26:59 44° 74° (ENE) 20:31:27 437.445
CUTE 1.7 + AOD 2 28 Jul 20:28:39 20:32:46 47° 261° (W) 20:36:54 437.475
Oscar 11 28 Jul 20:32:33 20:36:01 24° 71° (ENE) 20:39:29 145.826/435.025
PHONESAT 2.4 28 Jul 20:48:06 20:51:04 42° 21° (NNE) 20:54:01 2401.200-2431.200
YUBILEINY 28 Jul 20:54:26 21:03:17 73° 83° (E) 21:12:02 435.215
HO-68 28 Jul 21:01:06 21:07:29 34° 262° (W) 21:13:54 435.675
SEEDS 28 Jul 21:05:14 21:08:43 25° 264° (W) 21:12:12 437.485
CINEMA 3 28 Jul 21:06:20 21:09:02 16° 267° (W) 21:11:51 145.822/145.860
O/OREOS (USA 219) 28 Jul 21:08:57 21:12:26 22° 296° (WNW) 21:15:55 437.305
AIST 2 28 Jul 21:11:58 21:15:28 27° 304° (NW) 21:19:01 435.215
COMPASS 1 28 Jul 21:13:25 21:17:02 28° 263° (W) 21:20:41 437.405
M-CUBED/EXP-1 PRIME 28 Jul 21:20:27 21:23:46 31° 67° (ENE) 21:27:19 437.505
ISS 28 Jul 21:26:49 21:28:45 15° 327° (NNW) 21:30:42 145.825
FUNcube-1 28 Jul 21:27:16 21:31:47 82° 259° (W) 21:36:23 145.935
ZACube-1 28 Jul 21:29:16 21:33:46 73° 259° (W) 21:38:21 437.345
Cosmos 2504 28 Jul 21:29:57 21:37:15 38° 76° (ENE) 21:44:03 435.465 / 435.565
UWE-3 28 Jul 21:33:09 21:37:26 41° 262° (W) 21:41:50 435.000/436.395/437.385
PRISM 28 Jul 21:40:37 21:44:39 58° 285° (WNW) 21:48:41 437.425
AAUSAT CUBESAT 2 28 Jul 21:40:51 21:43:38 17° 265° (W) 21:46:25 437.432
AUBIESAT-1 28 Jul 21:44:32 21:48:10 51° 70° (ENE) 21:52:08 437.475
DELFI C3 28 Jul 21:46:33 21:50:31 77° 78° (ENE) 21:54:29 145.870
CUBEBUG 2 28 Jul 22:01:28 22:03:48 14° 268° (W) 22:06:09 437.445
Oscar 11 28 Jul 22:08:33 22:12:01 23° 264° (W) 22:15:29 145.826/435.025
Cosmos 2491 28 Jul 22:12:08 22:20:41 59° 279° (W) 22:29:16 435.465 / 435.565
ANTELSAT 28 Jul 22:23:19 22:27:14 28° 96° (E) 22:31:04 437.575/2403.000
PHONESAT 2.4 28 Jul 22:24:50 22:27:28 26° 215° (SW) 22:30:05 2401.200-2431.200
HUMSAT D 28 Jul 22:27:40 22:31:58 74° 259° (WSW) 22:36:17 437.325/437.525
DX 1 28 Jul 22:49:34 22:49:54 10° 65° (ENE) 22:50:14 434.975-435.025
YUBILEINY 28 Jul 22:53:27 22:59:03 19° 279° (W) 23:04:39 435.215
AISAT 28 Jul 22:53:45 22:56:44 18° 69° (ENE) 22:59:44 437.250
M-CUBED/EXP-1 PRIME 28 Jul 22:56:24 22:58:25 14° 263° (W) 23:00:29 437.505
UKube-1 28 Jul 22:59:25 22:59:56 10° 65° (ENE) 23:00:27 .
AO-85 28 Jul 22:59:58 23:04:12 79° 243° (WSW) 23:08:07 145.980
TIGRISAT 28 Jul 23:03:54 23:08:31 82° 102° (ESE) 23:12:59 435.000
UNISAT 6 28 Jul 23:21:00 23:25:32 58° 285° (WNW) 23:29:56 437.425
QB50P2 28 Jul 23:23:18 23:26:22 19° 95° (E) 23:29:24 145.880/145.840
Cosmos 2504 28 Jul 23:23:32 23:30:23 33° 274° (W) 23:36:50 435.465 / 435.565
POLYITAN 1 28 Jul 23:25:54 23:29:01 19° 95° (E) 23:32:06 437.675
SPROUT 28 Jul 23:26:25 23:29:16 18° 69° (ENE) 23:32:07 437.525
ESTCUBE 1 28 Jul 23:34:57 23:39:26 82° 257° (WSW) 23:43:57 437.505/2401.250
CUBEBUG 1 28 Jul 23:39:35 23:43:52 71° 76° (ENE) 23:48:10 437.445
VELOX 1 28 Jul 23:43:26 23:47:47 68° 76° (ENE) 23:52:09 145.980
ANTELSAT 29 Jul 00:00:15 00:03:44 22° 291° (WNW) 00:07:09 437.575/2403.000
NANOSAT C BR1 29 Jul 00:06:16 00:10:29 58° 101° (E) 00:14:40 145.865
DUCHIFAT 1 29 Jul 00:09:34 00:13:47 59° 101° (E) 00:17:58 145.980
50 SAT 29 Jul 00:12:05 00:15:33 40° 261° (W) 00:19:01 437.505
TISAT 1 29 Jul 00:15:25 00:17:35 14° 68° (ENE) 00:19:45 437.305
BUGSAT 1 29 Jul 00:16:23 00:20:04 28° 97° (E) 00:23:43 437.445
DX 1 29 Jul 00:21:19 00:25:33 57° 259° (W) 00:29:49 434.975-435.025
AISAT 29 Jul 00:29:04 00:32:57 31° 262° (W) 00:36:51 437.250
QB50P1 29 Jul 00:29:51 00:34:06 65° 284° (WNW) 00:38:19 145.935-145.965
UKube-1 29 Jul 00:31:13 00:35:25 55° 258° (WSW) 00:39:40 .
JUGNU 29 Jul 00:35:25 00:39:19 18° 168° (SSE) 00:43:13 437.505
POPSAT HIP 1 29 Jul 00:36:33 00:40:45 55° 285° (WNW) 00:44:55 437.405
AIST 1 29 Jul 00:50:44 00:55:01 58° 266° (W) 00:59:18
QB50P2 29 Jul 00:58:29 01:02:07 27° 288° (WNW) 01:05:45 145.880/145.840
POLYITAN 1 29 Jul 01:01:09 01:04:46 27° 289° (WNW) 01:08:21 437.675
SPROUT 29 Jul 01:01:10 01:04:56 30° 262° (W) 01:08:44 437.525
GONETS M04 29 Jul 01:04:38 01:10:12 18° 69° (ENE) 01:15:46
Oscar 19 29 Jul 01:10:24 01:13:57 19° 95° (E) 01:17:31 437.125/150
SWISSCUBE 29 Jul 01:12:16 01:14:42 14° 66° (ENE) 01:17:08 437.505
JAS-2 29 Jul 01:17:19 01:22:46 89° 283° (WNW) 01:28:50 435.910
BEESAT 29 Jul 01:32:10 01:35:41 21° 68° (ENE) 01:39:13 436.000
TISAT 1 29 Jul 01:48:57 01:52:50 38° 261° (W) 01:56:47 437.305
BUGSAT 1 29 Jul 01:52:12 01:55:11 19° 290° (WNW) 01:58:11 437.445
ITUPSAT 1 29 Jul 01:55:40 02:00:03 36° 72° (ENE) 02:04:26 437.325
Cosmos 2499 29 Jul 02:16:13 02:23:09 36° 76° (ENE) 02:29:39 435.465 / 435.565
JUGNU 29 Jul 02:23:05 02:27:44 24° 178° (S) 02:32:22 437.505
CUSAT 1 29 Jul 02:28:16 02:29:46 12° 96° (E) 02:31:08 437.405
KKS-1 29 Jul 02:44:11 02:45:42 12° 66° (ENE) 02:47:13 437.445
Gurwin Techsat 1B 29 Jul 02:45:39 02:50:59 77° 102° (ESE) 02:56:17 435.225
SWISSCUBE 29 Jul 02:47:22 02:52:01 50° 260° (W) 02:56:40 437.505
Oscar 19 29 Jul 02:48:32 02:53:22 41° 288° (WNW) 02:58:13 437.125/150
ITAMSAT 1 29 Jul 02:48:50 02:52:54 23° 96° (E) 02:56:57 435.822/435.867
SRMSAT 29 Jul 02:56:06 02:59:59 18° 169° (SSE) 03:03:52 437.500
GONETS M04 29 Jul 02:59:02 03:07:52 79° 267° (W) 03:16:42
BEESAT 3 29 Jul 03:07:32 03:11:22 47° 59° (ENE) 03:15:10 437.485
DANDE 29 Jul 03:08:14 03:11:57 18° 95° (E) 03:15:05 436.750
BEESAT 29 Jul 03:08:56 03:13:13 32° 262° (W) 03:17:31 436.000
STARS 29 Jul 03:16:33 03:18:33 13° 67° (ENE) 03:20:34 437.465
BEESAT 2 29 Jul 03:18:04 03:21:39 31° 57° (ENE) 03:25:13 435.950
MOZHAYETS 4 29 Jul 03:30:39 03:35:03 45° 74° (ENE) 03:39:28
ITUPSAT 1 29 Jul 03:34:39 03:37:55 18° 265° (W) 03:41:12 437.325
AO-7 29 Jul 03:45:26 03:53:05 39° 100° (E) 04:00:39 29.400- 29.500
PCSat 29 Jul 03:53:15 03:58:05 32° 58° (ENE) 04:02:54 145.827
ISS 29 Jul 03:56:18 03:59:34 82° 45° (NE) 04:02:48 145.825
CUSAT 1 29 Jul 04:08:01 04:11:40 27° 278° (W) 04:14:38 437.405
Cosmos 2499 29 Jul 04:09:30 04:16:01 32° 274° (W) 04:22:13 435.465 / 435.565
JUGNU 29 Jul 04:11:54 04:16:10 20° 189° (S) 04:20:25 437.505
KKS-1 29 Jul 04:17:26 04:21:45 52° 260° (W) 04:26:06 437.445
ITAMSAT 1 29 Jul 04:27:44 04:32:21 33° 290° (WNW) 04:36:56 435.822/435.867
Gurwin Techsat 1B 29 Jul 04:28:46 04:30:12 11° 297° (WNW) 04:31:38 435.225
SRMSAT 29 Jul 04:43:57 04:48:33 23° 179° (S) 04:53:08 437.500
BEESAT 3 29 Jul 04:48:11 04:48:34 10° 253° (WSW) 04:48:56 437.485
DANDE 29 Jul 04:49:18 04:54:38 36° 278° (W) 04:58:44 436.750
STARS 29 Jul 04:50:16 04:54:27 45° 260° (W) 04:58:42 437.465
CUBESAT XI-V 29 Jul 04:55:58 05:00:18 42° 74° (ENE) 05:04:39 437.345
BEESAT 2 29 Jul 04:56:43 04:59:12 16° 251° (WSW) 05:01:42 435.950
GONETS M04 29 Jul 05:01:06 05:03:10 11° 283° (WNW) 05:05:14
MOZHAYETS 4 29 Jul 05:10:03 05:12:22 14° 267° (W) 05:14:41
BRITE-PL 29 Jul 05:23:03 05:25:33 14° 94° (E) 05:28:06 437.365/2234.400
RS-15 29 Jul 05:25:24 05:35:36 41° 106° (ESE) 05:46:16 29.354- 29.394
AIST 2 29 Jul 05:36:46 05:40:47 46° 59° (ENE) 05:44:48 435.215
HORYU 2 29 Jul 05:36:46 05:41:13 70° 102° (ESE) 05:45:38 437.375
PCSat 29 Jul 05:36:48 05:41:19 27° 253° (WSW) 05:45:48 145.827
AO-7 29 Jul 05:38:08 05:45:43 41° 295° (WNW) 05:53:16 29.400- 29.500
O/OREOS (USA 219) 29 Jul 05:43:32 05:47:17 25° 64° (ENE) 05:51:02 437.305
Cubesat XI-IV 29 Jul 06:00:19 06:03:48 17° 94° (E) 06:07:15 437.490
JUGNU 29 Jul 06:02:46 06:04:31 11° 197° (SSW) 06:06:15 437.505
LilacSat-2 29 Jul 06:06:41 06:09:04 16° 94° (E) 06:11:26 437.200
GOMX 1 29 Jul 06:12:48 06:16:46 21° 95° (E) 06:20:49 467.674
CUTE-I 29 Jul 06:22:17 06:26:55 30° 97° (E) 06:31:32 437.470
SRMSAT 29 Jul 06:32:55 06:37:07 20° 189° (S) 06:41:18 437.500
NOAA 15 29 Jul 06:34:35 06:39:46 55° 101° (E) 06:44:55 137.62
CUBESAT XI-V 29 Jul 06:35:22 06:37:49 14° 267° (W) 06:40:16 437.345
BRITE-PL 29 Jul 06:59:15 07:04:08 57° 284° (WNW) 07:09:24 437.365/2234.400
NOAA 18 29 Jul 07:17:01 07:22:34 80° 285° (WNW) 07:28:04 137.9125
AIST 2 29 Jul 07:17:18 07:18:49 12° 252° (WSW) 07:20:20 435.215
STRAND 1 29 Jul 07:19:03 07:24:12 85° 75° (ENE) 07:29:22 437.568
O/OREOS (USA 219) 29 Jul 07:22:54 07:26:32 24° 258° (WSW) 07:30:10 437.305
CINEMA 3 29 Jul 07:28:05 07:30:54 15° 92° (E) 07:33:40 145.822/145.860
DOVE 4 29 Jul 07:31:12 07:36:24 63° 101° (E) 07:41:39 437.250
SO-50 29 Jul 07:33:48 07:38:40 74° 299° (WNW) 07:43:33 436.795
RS-15 29 Jul 07:36:39 07:47:38 52° 306° (NW) 07:59:18 29.354- 29.394
Cubesat XI-IV 29 Jul 07:38:57 07:44:01 46° 288° (WNW) 07:49:04 437.490
LilacSat-2 29 Jul 07:40:07 07:43:20 26° 288° (WNW) 07:46:31 437.200
GOMX 1 29 Jul 07:50:02 07:54:49 39° 287° (WNW) 07:59:48 467.674
YUBILEINY 29 Jul 07:57:56 08:02:18 15° 79° (E) 08:06:40 435.215
CUTE-I 29 Jul 08:02:23 08:06:49 27° 291° (WNW) 08:11:12 437.470
CANX-2 29 Jul 08:05:17 08:09:01 31° 97° (E) 08:12:44 2200.000
NOAA 15 29 Jul 08:16:05 08:19:01 15° 295° (WNW) 08:21:57 137.62
CUTE 1.7 + AOD 2 29 Jul 08:18:05 08:22:00 38° 98° (E) 08:25:55 437.475
CUBEBUG 2 29 Jul 08:19:50 08:22:14 14° 92° (E) 08:24:34 437.445
SRMSAT 29 Jul 08:24:07 08:25:36 11° 198° (SSW) 08:27:05 437.500
PRISM 29 Jul 08:25:21 08:29:17 50° 75° (ENE) 08:33:13 437.425
Cosmos 2491 29 Jul 08:27:55 08:36:31 57° 81° (E) 08:45:07 435.465 / 435.565
HO-68 29 Jul 08:32:47 08:39:53 61° 102° (ESE) 08:46:56 435.675
SEEDS 29 Jul 08:52:41 08:56:52 74° 102° (ESE) 09:01:00 437.485
COMPASS 1 29 Jul 09:00:03 09:04:08 60° 101° (E) 09:08:11 437.405
CINEMA 3 29 Jul 09:03:24 09:08:13 48° 286° (WNW) 09:12:56 145.822/145.860
DOVE 4 29 Jul 09:10:59 09:13:30 14° 294° (WNW) 09:16:03 437.250
ANTELSAT 29 Jul 09:18:32 09:21:17 16° 67° (ENE) 09:24:03 437.575/2403.000
FUNcube-1 29 Jul 09:20:37 09:24:20 26° 96° (E) 09:27:57 145.935
ZACube-1 29 Jul 09:22:45 09:26:40 30° 97° (E) 09:30:30 437.345
AAUSAT CUBESAT 2 29 Jul 09:25:57 09:30:03 81° 283° (WNW) 09:34:09 437.432
UWE-3 29 Jul 09:27:15 09:31:45 57° 100° (E) 09:36:06 435.000/436.395/437.385
DELFI C3 29 Jul 09:30:14 09:32:11 13° 94° (E) 09:34:08 145.870
CANX-2 29 Jul 09:41:56 09:44:36 17° 291° (WNW) 09:47:15 2200.000
YUBILEINY 29 Jul 09:49:02 09:57:49 86° 276° (W) 10:06:42 435.215
CUBEBUG 2 29 Jul 09:54:36 09:59:02 43° 286° (WNW) 10:03:19 437.445
CUTE 1.7 + AOD 2 29 Jul 09:55:23 09:57:28 14° 292° (WNW) 09:59:33 437.475
TIGRISAT 29 Jul 09:57:40 10:01:58 40° 73° (ENE) 10:06:22 435.000
RS-15 29 Jul 09:57:40 10:04:02 15° 335° (NNW) 10:10:33 29.354- 29.394
Oscar 11 29 Jul 09:59:11 10:03:30 90° 127° (SE) 10:07:47 145.826/435.025
Cosmos 2504 29 Jul 10:01:01 10:08:58 39° 87° (E) 10:16:56 435.465 / 435.565
UNISAT 6 29 Jul 10:14:33 10:19:08 69° 76° (ENE) 10:23:49 437.425
HUMSAT D 29 Jul 10:16:21 10:19:43 23° 96° (E) 10:23:00 437.325/437.525
HO-68 29 Jul 10:21:47 10:26:59 22° 298° (WNW) 10:32:12 435.675
Cosmos 2491 29 Jul 10:25:59 10:32:41 25° 276° (W) 10:39:24 435.465 / 435.565
M-CUBED/EXP-1 PRIME 29 Jul 10:37:21 10:42:00 56° 105° (ESE) 10:46:32 437.505
ANTELSAT 29 Jul 10:53:12 10:57:34 42° 261° (W) 11:02:01 437.575/2403.000
NANOSAT C BR1 29 Jul 10:54:24 10:57:47 24° 71° (ENE) 11:01:10 145.865
FUNcube-1 29 Jul 10:57:03 11:00:22 21° 290° (WNW) 11:03:38 145.935
DUCHIFAT 1 29 Jul 10:57:26 11:00:49 24° 71° (ENE) 11:04:14 145.980
ZACube-1 29 Jul 10:59:36 11:02:41 19° 291° (WNW) 11:05:43 437.345
AUBIESAT-1 29 Jul 11:01:17 11:05:58 86° 111° (ESE) 11:10:29 437.475
DELFI C3 29 Jul 11:03:34 11:07:05 32° 287° (WNW) 11:10:36 145.870
BUGSAT 1 29 Jul 11:04:09 11:05:14 11° 66° (ENE) 11:06:19 437.445
UWE-3 29 Jul 11:06:27 11:07:36 11° 295° (WNW) 11:08:45 435.000/436.395/437.385
QB50P1 29 Jul 11:17:30 11:21:34 48° 75° (ENE) 11:25:41 145.935-145.965
POPSAT HIP 1 29 Jul 11:24:06 11:28:15 58° 76° (ENE) 11:32:27 437.405
JAS-2 29 Jul 11:26:29 11:31:00 23° 69° (ENE) 11:35:11 435.910
ESTCUBE 1 29 Jul 11:32:19 11:36:13 29° 97° (E) 11:40:06 437.505/2401.250
AO-85 29 Jul 11:33:15 11:33:45 10° 106° (ESE) 11:34:15 145.980
CUBEBUG 1 29 Jul 11:33:31 11:36:38 19° 95° (E) 11:39:46 437.445
TIGRISAT 29 Jul 11:36:03 11:38:46 15° 267° (W) 11:41:31 435.000
VELOX 1 29 Jul 11:38:58 11:42:05 18° 95° (E) 11:45:11 145.980
50 SAT 29 Jul 11:45:35 11:48:17 20° 96° (E) 11:50:59 437.505
QB50P2 29 Jul 11:45:39 11:49:51 68° 258° (WSW) 11:54:08 145.880/145.840
POLYITAN 1 29 Jul 11:48:16 11:52:29 66° 259° (WSW) 11:56:46 437.675
YUBILEINY 29 Jul 11:51:43 11:55:49 14° 294° (WNW) 11:59:56 435.215
HUMSAT D 29 Jul 11:52:03 11:55:09 21° 290° (WNW) 11:58:14 437.325/437.525
Cosmos 2504 29 Jul 11:54:02 12:02:10 40° 283° (WNW) 12:10:21 435.465 / 435.565
M-CUBED/EXP-1 PRIME 29 Jul 12:13:38 12:15:57 14° 299° (WNW) 12:18:17 437.505
DX 1 29 Jul 12:14:04 12:18:03 33° 99° (E) 12:21:59 434.975-435.025
RS-15 29 Jul 12:20:34 12:24:41 12° 14° (NNE) 12:28:50 29.354- 29.394
UKube-1 29 Jul 12:22:56 12:26:50 32° 98° (E) 12:30:44 .
AISAT 29 Jul 12:22:59 12:27:26 68° 102° (ESE) 12:31:52 437.250
Oscar 19 29 Jul 12:23:23 12:26:43 18° 67° (ENE) 12:30:02 437.125/150
NANOSAT C BR1 29 Jul 12:30:06 12:33:23 22° 264° (W) 12:36:42 145.865
DUCHIFAT 1 29 Jul 12:33:09 12:36:23 22° 264° (W) 12:39:40 145.980
BUGSAT 1 29 Jul 12:36:12 12:40:07 46° 261° (W) 12:44:06 437.445
SPROUT 29 Jul 12:50:57 12:55:14 62° 101° (E) 12:59:29 437.525
QB50P1 29 Jul 12:56:51 12:57:34 10° 268° (W) 12:58:16 145.935-145.965
AO-85 29 Jul 13:08:11 13:13:37 83° 298° (WNW) 13:18:52 145.980
CUBEBUG 1 29 Jul 13:09:04 13:12:54 30° 288° (WNW) 13:16:44 437.445
ESTCUBE 1 29 Jul 13:09:31 13:12:48 20° 290° (WNW) 13:16:06 437.505/2401.250
JAS-2 29 Jul 13:10:07 13:15:51 40° 260° (W) 13:21:04 435.910
VELOX 1 29 Jul 13:14:37 13:18:31 31° 288° (WNW) 13:22:26 145.980
AIST 1 29 Jul 13:15:01 13:19:15 79° 277° (W) 13:23:31
50 SAT 29 Jul 13:19:18 13:21:45 18° 289° (WNW) 13:24:11 437.505
TISAT 1 29 Jul 13:37:02 13:41:06 43° 99° (E) 13:45:09 437.305
DX 1 29 Jul 13:51:05 13:53:55 17° 292° (WNW) 13:56:45 434.975-435.025
UKube-1 29 Jul 13:59:46 14:02:35 17° 292° (WNW) 14:05:23 .
GONETS M04 29 Jul 14:00:13 14:06:39 24° 83° (E) 14:13:06
Oscar 19 29 Jul 14:00:46 14:05:37 44° 260° (W) 14:10:31 437.125/150
Gurwin Techsat 1B 29 Jul 14:02:05 14:07:23 77° 75° (ENE) 14:12:42 435.225
ITUPSAT 1 29 Jul 14:02:19 14:04:35 13° 93° (E) 14:06:49 437.325
ITAMSAT 1 29 Jul 14:02:34 14:06:38 23° 68° (ENE) 14:10:42 435.822/435.867
